Retour au catalogue

STARLINK-30521

ActifCommunicationsVLEO
NORAD 57966·PAYLOAD·🇺🇸 United States

Lancé Sep 30, 2023 depuis Cape Canaveral Space Force Station

Loading…

Prochains Passages (prochaines 24 heures)

TLE

FraisSource: CelesTrak SupGP

Époque: Sep 14, 2026, 22:22 UTC

1 57966C 23151C   26257.93243056 -.00070763  00000+0 -25630-2 0  2578
2 57966  43.0028 347.0495 0001302 274.5860 356.6935 15.27614873    14

Suivez STARLINK-30521 en temps réel avec AllMySat

Download on the App Store